Location: Kuffner-Sternwarte
(48.2130°N, 16.2960°E)
Time: 02:10:35
(UTC+01:00)

ISS - Visible Passes

Search period start: 18 February 2019 00:00
Search period end: 28 February 2019 00:00
Orbit: 403 x 411 km, 51.6° (Epoch: 18 February)

Date Brightness Start Highest point End Pass type
(mag) Time Alt. Az. Time Alt. Az. Time Alt. Az.
24 Feb -1.3 05:43:09 10° S 05:45:40 21° SE 05:48:10 10° E visible
25 Feb -0.9 04:52:52 10° SSE 04:54:22 13° SE 04:55:52 10° ESE visible
26 Feb -2.7 05:35:49 10° SW 05:38:54 40° SSE 05:42:01 10° ENE visible
27 Feb -2.0 04:46:31 22° S 04:47:30 25° SE 04:50:16 10° E visible
